Friday Harbor, WA
on Thursday, November 15, 2012

Thursday
Previous Day Next Day
Daily Summary
 ActualAverageRecord
Temperature
Mean Temperature °F °F  
Max Temperature 46°F 47°F 59°F (2001)
Min Temperature 37°F 38°F 28°F (2000)
Degree Days
Heating Degree Days 24    
Moisture
Dew Point 40°F   
Average Humidity 90    
Maximum Humidity 100    
Minimum Humidity 76    
Precipitation
Precipitation 0.00 in in in ()
Wind
Wind Speed 2 mph   
Max Wind Speed 8 mph   
Max Gust Speed mph   
Visibility 8 miles   
Events     
Averages and records for this station are not official NWS values.
Key: T is trace of precipitation, MM is missing value
Source: NWS Daily Summary
Seasonal Weather Averages
Time(PST)TemperatureDew PointHumidity Pressure Visibility Wind DirectionWind SpeedGust SpeedPrecipitationEvents Conditions
12:53 AM 42.1°F 41.0°F 96% 30.29 in 10.0 miles Calm Calm - N/A   Clear
1:53 AM 43.0°F 41.0°F 93% 30.28 in 10.0 miles Variable 3.5 mph - N/A   Partly Cloudy
2:53 AM 43.0°F 42.1°F 97% 30.26 in 10.0 miles Calm Calm - N/A   Overcast
3:53 AM 44.1°F 42.1°F 93% 30.24 in 10.0 miles Variable 3.5 mph - N/A   Overcast
4:37 AM 44.6°F 42.8°F 93% 30.23 in 7.0 miles Variable 4.6 mph - N/A   Mostly Cloudy
4:44 AM 44.6°F 42.8°F 93% 30.23 in 6.0 miles North 8.1 mph - N/A   Mostly Cloudy
4:53 AM 44.1°F 42.1°F 93% 30.22 in 4.0 miles North 8.1 mph - N/A   Overcast
5:53 AM 43.0°F 41.0°F 93% 30.21 in 4.0 miles Variable 3.5 mph - N/A   Overcast
6:53 AM 42.1°F 41.0°F 96% 30.19 in 4.0 miles North 5.8 mph - N/A   Overcast
7:42 AM 42.8°F 41.0°F 93% 30.18 in 4.0 miles Calm Calm - N/A   Overcast
7:53 AM 43.0°F 41.0°F 93% 30.19 in 4.0 miles Calm Calm - N/A   Overcast
8:53 AM 43.0°F 39.9°F 89% 30.18 in 6.0 miles Calm Calm - N/A   Overcast
9:53 AM 43.0°F 39.9°F 89% 30.15 in 7.0 miles North 4.6 mph - N/A   Overcast
10:53 AM 43.0°F 39.9°F 89% 30.12 in 8.0 miles North 3.5 mph - N/A   Overcast
11:34 AM 44.6°F 39.2°F 81% 30.10 in 10.0 miles North 3.5 mph - N/A   Overcast
11:53 AM 46.0°F 39.9°F 79% 30.09 in 10.0 miles North 3.5 mph - N/A   Mostly Cloudy
12:12 PM 44.6°F 39.2°F 81% 30.07 in 10.0 miles Calm Calm - N/A   Scattered Clouds
12:19 PM 44.6°F 39.2°F 81% 30.07 in 10.0 miles NNW 4.6 mph - N/A   Mostly Cloudy
12:53 PM 45.0°F 39.9°F 82% 30.06 in 10.0 miles NNW 4.6 mph - N/A   Mostly Cloudy
1:30 PM 46.4°F 39.2°F 76% 30.06 in 10.0 miles Variable 4.6 mph - N/A   Scattered Clouds
1:53 PM 46.0°F 39.9°F 79% 30.05 in 10.0 miles North 5.8 mph - N/A   Scattered Clouds
2:53 PM 46.0°F 39.9°F 79% 30.04 in 10.0 miles Calm Calm - N/A   Clear
3:53 PM 45.0°F 39.0°F 80% 30.02 in 10.0 miles Calm Calm - N/A   Clear
4:53 PM 39.9°F 37.9°F 93% 30.01 in 10.0 miles Calm Calm - N/A   Clear
5:53 PM 37.9°F 36.0°F 93% 29.99 in 8.0 miles Calm Calm - N/A   Clear
6:53 PM 37.0°F 36.0°F 96% 29.99 in 6.0 miles Calm Calm - N/A   Clear
7:39 PM 37.4°F 35.6°F 93% 29.98 in 6.0 miles Calm Calm - N/A   Mostly Cloudy
7:53 PM 37.0°F 37.0°F 100% 29.98 in 7.0 miles Calm Calm - N/A   Overcast
8:53 PM 39.9°F 39.0°F 97% 29.97 in 7.0 miles NNW 3.5 mph - N/A   Overcast
9:53 PM 37.9°F 37.0°F 97% 29.97 in 7.0 miles Calm Calm - N/A   Overcast
10:53 PM 37.9°F 37.0°F 97% 29.95 in 7.0 miles Calm Calm - N/A   Overcast
11:53 PM 41.0°F 39.0°F 93% 29.95 in 7.0 miles Calm Calm - N/A   Overcast
Moon Phase
Nov. 15 Nov. 20 Nov. 28 Dec. 06 Dec. 13
Sunrise:07:21 AM (PST) Moon Rise:09:28 AM (PST)11/15
Sunset:04:32 PM (PST) Moon Set:06:23 PM (PST)11/15

Copyright © 2014 The Weather Underground, Inc.